Regional Weather Roundup
Issued by NWS Lake Charles, LA

Home | Current Version | Previous Version | Text Only | Print | Product List | Glossary On
Versions: 1 2 3 4 5 6 7 8 9 10 11 12 13 14 15 16 17 18 19 20 21 22 23 24 25 26 27 28 29 30 31 32 33 34 35 36 37 38 39 40 41 42 43 44 45 46 47 48 49 50
000
ASUS44 KLCH 300810
RWRLCH
RWRLCH
REGIONAL WEATHER ROUNDUP
NATIONAL WEATHER SERVICE LAKE CHARLES LA
300 AM CDT SAT AUG 30 2014

Note: "fair" indicates few or no clouds below 12,000 feet with no
significant weather and/or obstructions to visibility.


ACROSS SOUTHEAST TEXAS

CITY           SKY/WX    TMP DP  RH WIND       PRES   REMARKS
BEAUMONT       LGT RAIN  76  73  91 E7        29.92S
BEAUMONT CITY  RAIN      73  73  97 CALM      29.92F
ORANGE         RAIN      76  76 100 CALM      29.94S
JASPER         CLOUDY    74  71  91 E3        29.97R
$$

ACROSS CENTRAL LOUISIANA

CITY           SKY/WX    TMP DP  RH WIND       PRES   REMARKS
LEESVILLE      CLOUDY    75  73  93 SE7       29.96S
FULLERTON      CLOUDY    76  73  91 CALM      29.95S
ALEXANDRIA INT CLOUDY    76  74  93 SE6       29.96S
ESLER FIELD    CLOUDY    76  73  91 CALM      29.99S
DERIDDER       CLOUDY    76  74  93 CALM      29.98R
OAKDALE        CLOUDY    75  73  93 CALM      29.96S
OPELOUSAS        N/A     74  73  96 CALM      29.97S
$$

ACROSS SOUTHWEST AND SOUTH CENTRAL LOUISIANA

CITY           SKY/WX    TMP DP  RH WIND       PRES   REMARKS
SULPHUR        RAIN      78  76  95 E6        29.93F
LAKE CHARLES   LGT RAIN  77  75  93 E6        29.93F
CHENNAULT INT  RAIN      76  74  91 E3        29.95S
CAMERON PHI    PTSUNNY   81  75  83 S12G20    29.93F
DEQUINCY       PTSUNNY   75  74  98 CALM      29.94S
JENNINGS       CLOUDY    76  74  96 SE6       29.95S
LAFAYETTE      CLOUDY    75  73  93 VRB3      29.97S
NEW IBERIA     CLOUDY    76  73  91 E9        29.97S
ABBEVILLE        N/A     74  74  98 E6        29.97R
PATTERSON        N/A     75  73  94 NE6       30.01S
SALT POINT       N/A     80  77  90 CALM      29.96F
$$

SELECTED SITES ACROSS THE REGION

CITY           SKY/WX    TMP DP  RH WIND       PRES   REMARKS
HOUSTON BUSH   MOCLDY    75  73  94 E8        29.90F
HOUSTON HOBBY  MOCLDY    77  74  90 CALM      29.89S
GALVESTON      MOCLDY    83  76  79 S16       29.89F
COLLEGE STAT   MOCLDY    74  71  91 E3        29.93R
CONROE         CLOUDY    74  72  93 CALM      29.93R
HUNTSVILLE     MOCLDY    76  71  85 CALM      29.93S
LUFKIN         MOCLDY    76  71  85 E5        29.94S
SHREVEPORT     CLOUDY    76  73  91 SE7       29.95S
MONROE         LGT RAIN  76  73  91 S3        30.00S
NATCHEZ MS     CLOUDY    75  72  88 SE7       30.01S
BATON ROUGE    CLOUDY    75  74  96 E5        30.00R
N.O. INTL ARPT CLOUDY    79  75  87 SE7       29.99S
SLIDELL        CLOUDY    78  75  90 SE5       29.99F
$$

MARINE REPORTS

STATION/POSITION TIME  TEMP    WIND        PRES    VSBY  WAVE
                       AIR SEA DIR/SP/G                  HT/PER
                 (UTC) (F)     (DEG/KT/KT) (MB)    (MI)  (FT/S)
BUOY 30 S HIGH I 0800   84 85  160/ 16/ 19 1011.8F         5/ 5
SEA RIM ST PARK  0800   81     160/ 12/ 17 1013.3F
PORT ARTHUR      0800      85  240/  3/  7 1013.0F
SABINE PASS N    0800   79 83  180/ 10/ 14 1012.9S
TEXAS POINT      0800   80 83  170/ 14/ 16 1012.9F
CALCASIEU PASS   0800   79 82  190/  7/ 13 1014.4F
LK CHARLES BEACH 0800   76 87              1014.6R
MARSH ISLAND     NOT AVBL
FRESH WATER LOCK 0800   81 82  130/ 10/ 15 1014.1R
AMERADA PASS     0800   80 83  140/  5/  8 1014.8S
$$



USA.gov is the U.S. government's official web portal to all federal, state and local government web resources and services.